This is the latest recevied weather packets stored in our database for station/object K4IR. If no packets are shown the sender has not sent any weather packets the latest 10 day(s).
| Time | Temp. | Humidity | Pressure | Rain* | Wind** | Luminosity | Snow |
|---|---|---|---|---|---|---|---|
| 1777849305 | 16.67° C | 59% | 1016.7 hPa | 0 mm | - | 30 W/m² | - |
| 1777848702 | 17.22° C | 57% | 1016.8 hPa | 0 mm | - | 34 W/m² | - |
| 1777848097 | 17.78° C | 55% | 1016.8 hPa | 0 mm | - | 39 W/m² | - |
| 1777847497 | 18.33° C | 52% | 1016.7 hPa | 0 mm | - | 66 W/m² | - |
| 1777846892 | 18.33° C | 52% | 1017 hPa | 0 mm | - | 119 W/m² | - |
| 1777846287 | 19.44° C | 50% | 1016.7 hPa | 0 mm | - | 160 W/m² | - |
| 1777845686 | 20° C | 39% | 1016.7 hPa | 0 mm | - | 181 W/m² | - |
| 1777845086 | 21.11° C | 41% | 1016.7 hPa | 0 mm | - | 210 W/m² | - |
| 1777844480 | 20.56° C | 38% | 1016.6 hPa | 0 mm | - | 242 W/m² | - |
| 1777843876 | 20.56° C | 38% | 1016.6 hPa | 0 mm | - | 279 W/m² | - |
| 1777843271 | 20° C | 40% | 1016.8 hPa | 0 mm | - | 307 W/m² | - |
| 1777842669 | 20.56° C | 40% | 1016.5 hPa | 0 mm | - | 342 W/m² | - |
| 1777842068 | 20.56° C | 37% | 1016.5 hPa | 0 mm | - | 369 W/m² | - |
| 1777841467 | 20.56° C | 39% | 1016.4 hPa | 0 mm | - | 403 W/m² | - |
| 1777840861 | 20.56° C | 39% | 1016.5 hPa | 0 mm | - | 436 W/m² | - |
| 1777840261 | 21.11° C | 37% | 1016.7 hPa | 0 mm | - | 461 W/m² | - |
| 1777839656 | 20.56° C | 39% | 1016.7 hPa | 0 mm | - | 495 W/m² | - |
| 1777839051 | 20.56° C | 38% | 1017 hPa | 0 mm | - | 522 W/m² | - |
| 1777838450 | 21.11° C | 40% | 1017.1 hPa | 0 mm | - | 551 W/m² | - |
| 1777837850 | 20.56° C | 41% | 1017.2 hPa | 0 mm | - | 574 W/m² | - |
| 1777837247 | 20° C | 39% | 1017.4 hPa | 0 mm | - | 605 W/m² | - |
| 1777836644 | 20.56° C | 40% | 1017.6 hPa | 0 mm | - | 624 W/m² | - |
| 1777836042 | 20° C | 40% | 1017.5 hPa | 0 mm | - | 652 W/m² | - |
| 1777835442 | 21.11° C | 40% | 1017.6 hPa | 0 mm | - | 674 W/m² | - |
| 1777834842 | 20° C | 42% | 1017.6 hPa | 0 mm | - | 695 W/m² | - |
* Rain latest hour (hover to see other rain measurements)
** Current wind speed in m/s (hover to see current wind gust speed)